sat.trackr.live / text

‹ back to catalog

STARLINK-3182

NORAD 51469 · 2022-010P

PAYLOAD ACTIVE UNKNOWN

§ Identity

Operator
Country
US
Launch date
2022-02-03
Launch site
AFETR
Launch vehicle
Mass (kg)
RCS (m²)

Purposes: comms

External: N2YO · Heavens-Above · Gunter

§ Orbital elements

Epoch: 2026-09-20T04:00:03.000096Z

Period
93.85 min
Inclination
53.1587°
Eccentricity
0.0001338
Mean motion
15.34398499 rev/d
Perigee alt
461.8 km
Apogee alt
463.6 km
Semi-major
6,840.8 km
B*
-2.4377e-4
RAAN
116.9855°
Arg perigee
82.2928°
Mean anomaly
234.9367°
Rev number
575

§ Raw data

STARLINK-31821 51469U 22010P   26263.16670139 -.00008603  00000+0 -24377-3 0  99962 51469  53.1587 116.9855 0001338  82.2928 234.9367 15.34398499  5753

JSON: /api/v1/satellites/51469 · /tle

For live sub-satellite position, see the globe view (requires WebGL).

§ Visibility from observer

Set your observer location to see the next 7 days of passes ≥ 10°. The values pass through the URL so the page stays shareable.

No JS? Fill the form by hand. The geolocation button needs JavaScript.